When you browse on this site, cookies collect data to enhance your experience and personalize the content and advertising you see.
Visit our Privacy Policy to learn more. By continuing to use the site, you agree to this use of cookies and data.
  • en France
  • Liste des pays
  • À 7 jours
  • Température de l'eau
  • Carte satellitaire
  • Carte météo
  • Widgets météo
  • user-avatar
    Se connecter

    Météo par heure à Tenchin

    Ce jour, 19 Juin, Mercredi

    Heure Température Précipitation Vent Pression Humidité
    00:00 +17°C° 0 mm 0 m/s 738 mmHg 90%
    01:00 +17°C° 0 mm 0 m/s 737 mmHg 91%
    02:00 +17°C° 0 mm 0 m/s 737 mmHg 91%
    03:00 +17°C° 0 mm 0 m/s 737 mmHg 92%
    04:00 +16°C° 0 mm 0 m/s 737 mmHg 92%
    05:00 +18°C° 0 mm 0 m/s 737 mmHg 88%
    06:00 +19°C° 0 mm 0 m/s 737 mmHg 85%
    07:00 +21°C° 0 mm 0 m/s 737 mmHg 81%
    08:00 +24°C° 0.5 mm 1 m/s 737 mmHg 78%
    09:00 +25°C° 0.5 mm 1 m/s 737 mmHg 74%
    10:00 +27°C° 0.5 mm 1 m/s 737 mmHg 71%
    11:00 +27°C° 1.7 mm 2 m/s 737 mmHg 72%
    12:00 +27°C° 1.7 mm 2 m/s 736 mmHg 73%
    13:00 +27°C° 1.7 mm 2 m/s 736 mmHg 75%
    14:00 +27°C° 1.4 mm 2 m/s 736 mmHg 76%
    15:00 +27°C° 1.4 mm 1 m/s 735 mmHg 77%
    16:00 +27°C° 1.4 mm 1 m/s 735 mmHg 77%
    17:00 +26°C° 1.6 mm 1 m/s 735 mmHg 80%
    18:00 +25°C° 1.6 mm 1 m/s 735 mmHg 83%
    19:00 +22°C° 1.6 mm 0 m/s 735 mmHg 85%
    20:00 +21°C° 0.2 mm 0 m/s 735 mmHg 87%
    21:00 +20°C° 0.2 mm 0 m/s 735 mmHg 88%
    22:00 +19°C° 0.2 mm 0 m/s 735 mmHg 90%
    23:00 +18°C° 0.3 mm 0 m/s 735 mmHg 90%

    Demain, 20 Juin, Jeudi

    Heure Température Précipitation Vent Pression Humidité
    00:00 +18°C° 0.3 mm 0 m/s 735 mmHg 91%
    01:00 +20°C° 0.3 mm 1 m/s 735 mmHg 92%
    02:00 +20°C° 0.1 mm 1 m/s 735 mmHg 92%
    03:00 +17°C° 0.1 mm 0 m/s 735 mmHg 92%
    04:00 +17°C° 0.1 mm 0 m/s 735 mmHg 93%
    05:00 +18°C° 0.1 mm 0 m/s 735 mmHg 91%
    06:00 +20°C° 0.1 mm 0 m/s 735 mmHg 89%
    07:00 +21°C° 0.1 mm 0 m/s 736 mmHg 87%
    08:00 +22°C° 1.4 mm 0 m/s 736 mmHg 83%
    09:00 +23°C° 1.4 mm 0 m/s 736 mmHg 78%
    10:00 +25°C° 1.4 mm 0 m/s 736 mmHg 73%
    11:00 +26°C° 0.3 mm 0 m/s 736 mmHg 67%
    12:00 +27°C° 0.3 mm 0 m/s 736 mmHg 60%
    13:00 +28°C° 0.3 mm 0 m/s 735 mmHg 53%
    14:00 +28°C° 0.1 mm 0 m/s 735 mmHg 54%
    15:00 +27°C° 0.1 mm 0 m/s 735 mmHg 55%
    16:00 +27°C° 0.1 mm 0 m/s 735 mmHg 56%
    17:00 +25°C° 0.7 mm 0 m/s 735 mmHg 65%
    18:00 +24°C° 0.7 mm 0 m/s 735 mmHg 74%
    19:00 +22°C° 0.7 mm 0 m/s 735 mmHg 82%
    20:00 +21°C° 0.1 mm 0 m/s 735 mmHg 84%
    21:00 +20°C° 0.1 mm 0 m/s 735 mmHg 86%
    22:00 +19°C° 0.1 mm 0 m/s 736 mmHg 88%
    23:00 +18°C° 0.3 mm 0 m/s 736 mmHg 89%

    Après-demain, 21 Juin, Vendredi

    Heure Température Précipitation Vent Pression Humidité
    00:00 +18°C° 0.3 mm 0 m/s 736 mmHg 90%
    01:00 +17°C° 0.3 mm 0 m/s 736 mmHg 91%
    02:00 +19°C° 0 mm 1 m/s 736 mmHg 92%
    03:00 +19°C° 0 mm 1 m/s 736 mmHg 93%
    04:00 +19°C° 0 mm 1 m/s 736 mmHg 94%
    05:00 +20°C° 0 mm 1 m/s 737 mmHg 92%
    06:00 +21°C° 0 mm 1 m/s 737 mmHg 90%
    07:00 +22°C° 0 mm 1 m/s 737 mmHg 88%
    08:00 +24°C° 0.3 mm 1 m/s 737 mmHg 82%
    09:00 +25°C° 0.3 mm 1 m/s 737 mmHg 76%
    10:00 +27°C° 0.3 mm 1 m/s 738 mmHg 70%
    11:00 +27°C° 1.2 mm 2 m/s 737 mmHg 68%
    12:00 +28°C° 1.2 mm 2 m/s 737 mmHg 66%
    13:00 +28°C° 1.2 mm 2 m/s 737 mmHg 64%
    14:00 +28°C° 0.9 mm 2 m/s 737 mmHg 67%
    15:00 +27°C° 0.9 mm 2 m/s 737 mmHg 70%
    16:00 +27°C° 0.9 mm 2 m/s 737 mmHg 73%
    17:00 +26°C° 0.2 mm 2 m/s 737 mmHg 77%
    18:00 +25°C° 0.2 mm 2 m/s 737 mmHg 82%
    19:00 +23°C° 0.2 mm 2 m/s 737 mmHg 87%
    20:00 +21°C° 0 mm 2 m/s 737 mmHg 90%
    21:00 +20°C° 0 mm 2 m/s 737 mmHg 92%
    22:00 +19°C° 0 mm 2 m/s 737 mmHg 95%
    23:00 +18°C° 0 mm 2 m/s 737 mmHg 95%

    22 Juin, Samedi

    Heure Température Précipitation Vent Pression Humidité
    00:00 +18°C° 0 mm 2 m/s 737 mmHg 96%
    01:00 +17°C° 0 mm 2 m/s 737 mmHg 96%
    02:00 +17°C° 0 mm 2 m/s 737 mmHg 96%
    03:00 +17°C° 0 mm 2 m/s 737 mmHg 96%
    04:00 +17°C° 0 mm 2 m/s 737 mmHg 97%
    05:00 +18°C° 0 mm 2 m/s 737 mmHg 93%
    06:00 +19°C° 0 mm 2 m/s 738 mmHg 90%
    07:00 +20°C° 0 mm 3 m/s 738 mmHg 87%
    08:00 +22°C° 0 mm 3 m/s 738 mmHg 82%
    09:00 +24°C° 0 mm 3 m/s 738 mmHg 76%
    10:00 +25°C° 0 mm 3 m/s 738 mmHg 70%
    11:00 +26°C° 0.8 mm 3 m/s 738 mmHg 71%
    12:00 +26°C° 0.8 mm 3 m/s 738 mmHg 72%
    13:00 +26°C° 0.8 mm 2 m/s 737 mmHg 74%
    14:00 +26°C° 0.8 mm 2 m/s 737 mmHg 74%
    15:00 +26°C° 0.8 mm 2 m/s 737 mmHg 75%
    16:00 +26°C° 0.8 mm 2 m/s 736 mmHg 75%
    17:00 +25°C° 1.1 mm 2 m/s 736 mmHg 79%
    18:00 +24°C° 1.1 mm 2 m/s 736 mmHg 84%
    19:00 +21°C° 1.1 mm 2 m/s 736 mmHg 88%
    20:00 +22°C° 1.1 mm 1 m/s 736 mmHg 90%
    21:00 +21°C° 1.1 mm 1 m/s 736 mmHg 92%
    22:00 +20°C° 1.1 mm 1 m/s 737 mmHg 93%
    23:00 +20°C° 0.2 mm 1 m/s 736 mmHg 93%

    23 Juin, Dimanche

    Heure Température Précipitation Vent Pression Humidité
    00:00 +19°C° 0.2 mm 1 m/s 736 mmHg 93%
    01:00 +19°C° 0.2 mm 1 m/s 736 mmHg 93%
    02:00 +19°C° 0.3 mm 1 m/s 736 mmHg 94%
    03:00 +17°C° 0.3 mm 0 m/s 736 mmHg 95%
    04:00 +16°C° 0.3 mm 0 m/s 736 mmHg 95%
    05:00 +19°C° 0.1 mm 1 m/s 737 mmHg 95%
    06:00 +19°C° 0.1 mm 1 m/s 737 mmHg 95%
    07:00 +20°C° 0.1 mm 1 m/s 737 mmHg 95%
    08:00 +19°C° 0.1 mm 2 m/s 737 mmHg 93%
    09:00 +20°C° 0.1 mm 2 m/s 738 mmHg 91%
    10:00 +20°C° 0.1 mm 2 m/s 738 mmHg 89%
    11:00 +21°C° 0 mm 3 m/s 738 mmHg 82%
    12:00 +22°C° 0 mm 4 m/s 738 mmHg 75%
    13:00 +25°C° 0 mm 4 m/s 739 mmHg 67%
    14:00 +23°C° 0 mm 4 m/s 739 mmHg 67%
    15:00 +23°C° 0 mm 4 m/s 739 mmHg 68%
    16:00 +22°C° 0 mm 4 m/s 739 mmHg 68%
    17:00 +21°C° 0 mm 4 m/s 739 mmHg 73%
    18:00 +19°C° 0 mm 3 m/s 740 mmHg 77%
    19:00 +18°C° 0 mm 3 m/s 740 mmHg 82%
    20:00 +16°C° 0 mm 2 m/s 740 mmHg 86%
    21:00 +15°C° 0 mm 2 m/s 741 mmHg 90%
    22:00 +14°C° 0 mm 2 m/s 741 mmHg 94%
    23:00 +14°C° 0 mm 2 m/s 742 mmHg 94%

    24 Juin, Lundi

    Heure Température Précipitation Vent Pression Humidité
    00:00 +13°C° 0 mm 2 m/s 742 mmHg 94%
    01:00 +13°C° 0 mm 2 m/s 742 mmHg 95%
    02:00 +13°C° 0 mm 2 m/s 742 mmHg 95%
    03:00 +12°C° 0 mm 2 m/s 742 mmHg 95%
    04:00 +12°C° 0 mm 2 m/s 743 mmHg 95%
    05:00 +13°C° 0 mm 2 m/s 743 mmHg 89%
    06:00 +14°C° 0 mm 3 m/s 743 mmHg 83%
    07:00 +16°C° 0 mm 3 m/s 744 mmHg 77%
    08:00 +18°C° 0 mm 3 m/s 744 mmHg 70%
    09:00 +20°C° 0 mm 4 m/s 744 mmHg 63%
    10:00 +21°C° 0 mm 4 m/s 744 mmHg 57%
    11:00 +22°C° 0 mm 4 m/s 744 mmHg 53%
    12:00 +23°C° 0 mm 4 m/s 744 mmHg 50%
    13:00 +25°C° 0 mm 4 m/s 744 mmHg 46%
    14:00 +25°C° 0 mm 4 m/s 744 mmHg 48%
    15:00 +25°C° 0 mm 4 m/s 744 mmHg 50%
    16:00 +25°C° 0 mm 4 m/s 744 mmHg 53%
    17:00 +22°C° 0 mm 3 m/s 744 mmHg 58%
    18:00 +20°C° 0 mm 3 m/s 744 mmHg 64%
    19:00 +19°C° 0 mm 2 m/s 744 mmHg 70%
    20:00 +17°C° 0 mm 2 m/s 744 mmHg 72%
    21:00 +16°C° 0 mm 2 m/s 745 mmHg 74%
    22:00 +14°C° 0 mm 2 m/s 745 mmHg 76%
    23:00 +14°C° 0 mm 2 m/s 745 mmHg 79%
    Voir plus